Voltar ao catálogo

STARLINK-5074

AtivoComunicaçõesVLEO
NORAD 55438·PAYLOAD·🇺🇸 United States

Lançado Jan 31, 2023 de Vandenberg Space Force Base

Loading…

Próximas Passagens (próximas 24 horas)

TLE

AtualizadoSource: CelesTrak SupGP

Época: Sep 15, 2026, 02:15 UTC

1 55438C 23014AZ  26258.09423611  .00034073  00000+0  28553-2 0  2583
2 55438  69.9994 306.7278 0003726 267.3113   0.2029 14.98313150    16

Acompanhe STARLINK-5074 em tempo real com AllMySat

Download on the App Store